Home > Time Zones > World Clock > Weather > U.S.A. > Adak > Past weeks

Flag for U.S.A. Weather past 2 weeks in Adak, Alaska, U.S.A.

Now
30 °F

Passing clouds.


Feels Like: 23 °F
Forecast: 32 / 37 °F
Wind: 7 mph from Northwest

Location: Adak

Current Time: Dec 17, 2014 at 5:02:57 PM

Latest Report: Dec 17, 2014 at 4:36 PM


Visibility: 10 mi

Pressure: 29.52 "Hg

Humidity: 64%

Dew point: 19 °F

Location of AdakLocation

Historic Weather in Adak — Graph

°F

Adak temperature yesterday

Maximum temperature yesterday: 37 °F (at 2:36 AM)
Minimum temperature yesterday: 19 °F (at 8:36 AM)
Average temperature yesterday: 30 °F

Past Weeks' High & Low Weather Summary

 TemperatureHumidityPressure
High41 °F (Dec 2, 3:16 PM)100% (Dec 15, 12:16 AM)29.75 "Hg (Dec 15, 12:16 AM)
Low19 °F (Dec 16, 8:36 AM)56% (Dec 17, 5:36 AM)28.79 "Hg (Dec 6, 4:36 AM)
Average36 °F79%29.23 "Hg
* Reported Dec 2 3:16 PM — Dec 17 3:56 PM, Adak, Weather by CustomWeather, © 2014

Note: Actual official high and low records may vary slightly from our data, if they occured in-between our weather recording intervals... More about our weather records

Advertising

Adak weather history for previous 24 hours

 ConditionsComfort  
Time TempWeatherWind HumidityBarometerVisibility
3:56 PM
Dec 17
34 °FBroken clouds.12 mph70%29.53 "Hg10 mi
3:36 PM36 °FOvercast.15 mph60%29.53 "Hg9 mi
3:16 PM36 °FPartly sunny.10 mph65%29.53 "Hg10 mi
2:56 PM34 °FPartly sunny.13 mph70%29.54 "Hg10 mi
2:36 PM34 °FScattered clouds.5 mph75%29.55 "Hg10 mi
1:56 PM34 °FMostly cloudy.8 mph75%29.56 "Hg2 mi
1:36 PM34 °FBroken clouds.22 mph60%29.56 "Hg8 mi
1:16 PM34 °FBroken clouds.14 mph60%29.56 "Hg10 mi
12:56 PM34 °FBroken clouds.14 mph60%29.55 "Hg10 mi
12:36 PM34 °FMore clouds than sun.17 mph60%29.54 "Hg10 mi
12:16 PM32 °FBroken clouds.12 mph75%29.55 "Hg8 mi
11:56 AM32 °FScattered clouds.13 mph60%29.55 "Hg10 mi
11:36 AM34 °FMostly cloudy.18 mph60%29.54 "Hg10 mi
11:16 AM32 °FBroken clouds.13 mph69%29.54 "Hg10 mi
10:56 AM34 °FBroken clouds.17 mph87%29.53 "Hg5 mi
10:36 AM30 °FBroken clouds.17 mph80%29.52 "Hg5 mi
10:16 AM32 °FCloudy.22 mph75%29.53 "Hg1 mi
9:56 AM30 °FMostly cloudy.14 mph69%29.52 "Hg7 mi
9:36 AM30 °FLow clouds.9 mph80%29.52 "Hg1 mi
9:16 AM32 °FOvercast.17 mph75%29.52 "Hg1 mi
8:56 AM30 °FPassing clouds.17 mph59%29.50 "Hg10 mi
8:36 AM32 °FPartly cloudy.15 mph64%29.49 "Hg10 mi
8:16 AM32 °FPartly cloudy.16 mph60%29.48 "Hg10 mi
7:56 AM30 °FPassing clouds.17 mph69%29.48 "Hg10 mi
7:36 AM32 °FPartly cloudy.16 mph64%29.47 "Hg10 mi
7:16 AM34 °FMostly cloudy.17 mph60%29.47 "Hg10 mi
6:56 AM32 °FPartly cloudy.10 mph64%29.46 "Hg10 mi
6:36 AM32 °FPartly cloudy.15 mph64%29.46 "Hg10 mi
6:16 AM34 °FMostly cloudy.14 mph60%29.45 "Hg10 mi
5:56 AM34 °FMostly cloudy.16 mph60%29.45 "Hg10 mi
5:36 AM34 °FPassing clouds.23 mph56%29.44 "Hg10 mi
5:16 AM34 °FOvercast.14 mph60%29.43 "Hg10 mi
4:56 AM34 °FMostly cloudy.21 mph60%29.42 "Hg10 mi
4:36 AM34 °FPartly cloudy.14 mph60%29.42 "Hg10 mi
4:16 AM34 °FOvercast.12 mph70%29.42 "Hg2 mi
3:56 AM34 °FPartly cloudy.13 mph60%29.40 "Hg10 mi
3:36 AM34 °FPassing clouds.9 mph60%29.40 "Hg10 mi
2:56 AM34 °FPassing clouds.8 mph60%29.38 "Hg10 mi
2:36 AM34 °FPartly cloudy.13 mph60%29.37 "Hg10 mi
2:16 AM34 °FMostly cloudy.13 mph65%29.37 "Hg10 mi
1:56 AM32 °FPartly cloudy.16 mph75%29.36 "Hg10 mi
1:36 AM32 °FOvercast.13 mph69%29.35 "Hg2 mi
1:16 AM34 °FMostly cloudy.3 mph81%29.35 "Hg10 mi
12:56 AM34 °FOvercast.10 mph65%29.35 "Hg10 mi
12:36 AM34 °FOvercast.3 mph81%29.34 "Hg10 mi
12:16 AM34 °FOvercast.6 mph70%29.33 "Hg10 mi
11:56 PM
Dec 16
34 °FPassing clouds.8 mph70%29.32 "Hg10 mi
11:36 PM34 °FPassing clouds.20 mph70%29.30 "Hg10 mi
11:16 PM34 °FPassing clouds.18 mph70%29.30 "Hg10 mi
10:56 PM34 °FMostly cloudy.14 mph75%29.29 "Hg10 mi
10:36 PM34 °FPartly cloudy.18 mph81%29.29 "Hg8 mi
10:16 PM32 °FPassing clouds.12 mph80%29.27 "Hg10 mi
9:56 PM34 °FOvercast.9 mph81%29.27 "Hg10 mi
9:36 PM34 °FOvercast.13 mph87%29.26 "Hg10 mi
9:16 PM34 °FPartly cloudy.9 mph87%29.25 "Hg10 mi
8:56 PM34 °FOvercast.7 mph93%29.25 "Hg8 mi
8:36 PM34 °FPartly cloudy.3 mph93%29.24 "Hg8 mi
7:56 PM34 °FOvercast.8 mph87%29.22 "Hg3 mi
7:36 PM34 °FOvercast.8 mph87%29.22 "Hg2 mi
7:16 PM34 °FLow clouds.8 mph93%29.22 "Hg3 mi
6:56 PM34 °FMostly cloudy.7 mph87%29.21 "Hg4 mi
6:36 PM34 °FOvercast.9 mph93%29.20 "Hg10 mi
6:16 PM34 °FOvercast.6 mph87%29.20 "Hg5 mi
5:56 PM32 °FMostly cloudy.No wind93%29.19 "Hg10 mi
5:36 PM32 °FOvercast.6 mph93%29.19 "Hg5 mi
5:16 PM34 °FCloudy.6 mph93%29.18 "Hg3 mi
Weather by CustomWeather, © 2014

See weather overviewHow to use our weather pages